Weather History for KOVS - January, 2014

Change the Weather History Date:

Wednesday, January 8, 2014

  Actual Average (KPDC) Record (KPDC)
Temperature  
Mean Temperature -2 °F -  
Max Temperature 10 °F 23 °F 53 °F (2003)
Min Temperature -16 °F 3 °F -24 °F (1971)
Degree Days  
Heating Degree Days 67    
Moisture  
Dew Point -12 °F    
Average Humidity 69    
Maximum Humidity 80    
Minimum Humidity 47    
Precipitation  
Precipitation 0.00 in - - ()
Sea Level Pressure  
Sea Level Pressure 30.48 in    
Wind  
Wind Speed 1 mph (WSW)    
Max Wind Speed 6 mph    
Max Gust Speed -    
Visibility 7 miles    
Events      
Averages and records for this station are not official NWS values.
T = Trace of Precipitation, MM = Missing Value Source: NWS Daily Summary

Daily Weather History Graph

Daily Weather History Graph

Search for Another Location

Airport or City:

Trip Planner

Search our weather history database for the weather conditions in past years. The results will help you decide how hot, cold, wet, or windy it might be!

Date:

Astronomy

Jan. 08, 2014 Rise Set
Actual Time 7:34 AM CST 4:45 PM CST
Civil Twilight 7:02 AM CST 5:17 PM CST
Nautical Twilight 6:26 AM CST 5:52 PM CST
Astronomical Twilight 5:52 AM CST 6:27 PM CST
Moon 11:42 AM CST (1/8) 12:34 AM CST (1/8)
Length of Visible Light 10h 15m
Length of Day
9h 11m
First Quarter, 56% of the Moon is Illuminated
Jan 8
First Quarter
Jan 15
Full
Jan 23
Last Quarter
Jan 30
New
Feb 6
First Quarter

Hourly Weather History & Observations

Time (CST) Temp. Windchill Dew Point Humidity Pressure Visibility Wind Dir Wind Speed Gust Speed Precip Events Conditions
12:53 AM -14.1 °F - -18.9 °F 79% 30.35 in 3.0 mi Calm Calm - N/A   Haze
1:53 AM -14.1 °F - -20.0 °F 75% 30.37 in 9.0 mi Calm Calm - N/A   Clear
2:53 AM -13.0 °F - -18.9 °F 75% 30.39 in 10.0 mi Calm Calm - N/A   Clear
3:07 AM -14.1 °F - -20.0 °F 75% 30.33 in 6.0 mi Calm Calm - N/A   Haze
3:53 AM -11.9 °F - -18.0 °F 74% 30.40 in 10.0 mi Calm Calm - N/A   Clear
4:53 AM -13.0 °F -22.7 °F -18.9 °F 75% 30.41 in 10.0 mi WSW 3.5 mph - N/A   Clear
5:53 AM -13.0 °F - -18.9 °F 75% 30.42 in 10.0 mi Calm Calm - N/A   Clear
6:53 AM -11.9 °F - -18.0 °F 74% 30.44 in 4.0 mi Calm Calm - N/A   Haze
7:53 AM -11.9 °F - -18.0 °F 74% 30.46 in 10.0 mi Calm Calm - N/A   Overcast
8:53 AM -9.9 °F -19.2 °F -15.0 °F 78% 30.50 in 9.0 mi SW 3.5 mph - N/A   Clear
9:53 AM -4.0 °F -16.3 °F -11.0 °F 72% 30.51 in 10.0 mi SW 5.8 mph - 0.00 in   Clear
10:53 AM 1.9 °F -7.6 °F -8.0 °F 63% 30.51 in 10.0 mi SSW 4.6 mph - 0.00 in   Clear
11:53 AM 5.0 °F -4.1 °F -6.0 °F 61% 30.48 in 10.0 mi Variable 4.6 mph - N/A   Clear
12:53 PM 9.0 °F 2.4 °F -6.0 °F 51% 30.47 in 10.0 mi Variable 3.5 mph - 0.00 in   Clear
1:53 PM 10.0 °F 1.8 °F -6.0 °F 48% 30.48 in 10.0 mi West 4.6 mph - 0.00 in   Clear
2:53 PM 10.9 °F 4.7 °F -6.0 °F 47% 30.48 in 10.0 mi NNW 3.5 mph - 0.00 in   Clear
3:53 PM 10.0 °F 1.8 °F -6.0 °F 48% 30.51 in 10.0 mi NW 4.6 mph - N/A   Clear
4:53 PM 6.1 °F - -7.1 °F 55% 30.52 in 10.0 mi Calm Calm - N/A   Clear
5:16 PM 3.0 °F - -7.1 °F 63% 30.46 in 1.5 mi Calm Calm - N/A   Haze
5:19 PM 1.9 °F - -8.0 °F 63% 30.46 in 0.8 mi Calm Calm - N/A   Haze
5:26 PM 1.0 °F - -8.0 °F 66% 30.46 in 1.2 mi Calm Calm - N/A   Haze
5:34 PM -0.0 °F - -9.0 °F 66% 30.46 in 8.0 mi Calm Calm - N/A   Clear
5:49 PM -0.4 °F - -9.4 °F 66% 30.47 in 2.0 mi Calm Calm - N/A   Haze
5:53 PM -0.9 °F - -9.0 °F 69% 30.54 in 4.0 mi Calm Calm - N/A   Haze
6:14 PM -2.0 °F - -9.0 °F 72% 30.48 in 1.8 mi Calm Calm - N/A   Haze
6:19 PM -2.0 °F - -9.0 °F 72% 30.48 in 0.8 mi Calm Calm - N/A   Haze
6:24 PM -2.9 °F - -9.0 °F 75% 30.48 in 1.2 mi Calm Calm - N/A   Haze
6:26 PM -2.9 °F - -9.9 °F 72% 30.48 in 3.0 mi Calm Calm - N/A   Haze
6:53 PM -5.1 °F - -9.9 °F 80% 30.56 in 7.0 mi Calm Calm - N/A   Clear
7:53 PM -8.0 °F - -14.1 °F 75% 30.58 in 8.0 mi Calm Calm - N/A   Clear
8:53 PM -9.9 °F - -15.0 °F 78% 30.58 in 7.0 mi Calm Calm - N/A   Clear
9:53 PM -11.0 °F - -16.1 °F 78% 30.58 in 6.0 mi Calm Calm - N/A   Haze
10:53 PM -13.0 °F - -18.0 °F 78% 30.57 in 7.0 mi Calm Calm - N/A   Clear
11:53 PM -16.1 °F - -22.0 °F 74% 30.58 in 7.0 mi Calm Calm - N/A   Clear